Weather in Mugarty

Russia / Republic of Dagestan     41°59′50″N   48°09′41″E
temp.,
°C
wind,
m/s
gust,
m/s
humid.,
%
clouds,
%
prec.,
mm/h
press.,
hPa
HPBL,
m
23 september, thu
thu2300:00+19nnw2275100 0.1 1010343
03:00+19nnw3479100 0.1 1009318
06:00+18nnw3487100 0.1 1010428
09:00+17nnw6890100 1.6 1011611
12:00+17nw4678100 0.1 1010687
15:00+17nnw4578100 0.2 1010736
18:00+17nnw468096 0.1 1010563
21:00+17nw457917 0.1 1010416
24 september, fri
fri2400:00+16nw348478 0.1 1009185
03:00+16nnw458290 0.1 1008497
06:00+16nnw4583100 0.0 1008519
09:00+16nnw5681100 0.1 1009668
12:00+16nnw5775100 0.1 1011887
15:00+17nnw6765100 0.2 10111194
18:00+16nnw7868100 0.1 1014904
21:00+14nnw457996 0.3 1015539
25 september, sat
sat2500:00+13wnw2288100 1.8 1016163
03:00+13n118786 1.9 1016115
06:00+13ssw1190100 2.0 1016149
09:00+15s227797 2.1 1016258
12:00+18ese336155 0.0 10141015
15:00+17ese3468100 0.1 1013857
18:00+15sse3471100 0.0 1013188
21:00+14sw11774 0.0 101579
26 september, sun
sun2600:00+15nnw577490 0.0 1016230
03:00+14nnw101563100 0.1 10191222
06:00+15nw51157100 0.0 10211006
09:00+17n135041 0.0 10221408
12:00+19sse454323 0.0 10211492
15:00+19e334665 0.0 10201418
18:00+17ese125288 0.0 1021520
21:00+16s345986 0.0 1021213
27 september, mon
mon2700:00+14ssw34651 0.0 1019114
03:00+14ssw34700 0.0 101890
06:00+14ssw23680 0.0 101860
09:00+20ese11430 0.0 1017559
12:00+21e43417 0.0 10161470
15:00+21ene444815 0.0 1016995
18:00+19ene115498 0.0 1017447
21:00+19sse115788 0.0 1017120